Location: Almena Post Office
(39.8928°N, 99.7066°W)
Time: 08:58:25
(UTC+00:00)

Cosmos 1151 Rocket - Pass Details

Date: 27 February 2020
Orbit: 592 x 616 km, 82.5° (Epoch: 28 March)

Event Time Altitude Azimuth Distance (km) Brightness Sun altitude
Rises 12:21:26 0° 206° (SSW) 2,847 6.2 -11.2°
Reaches altitude 10° 12:23:46 10° 215° (SW) 1,952 5.3 -10.7°
Maximum altitude 12:27:46 36° 283° (WNW) 968 3.6 -10.0°
Drops below altitude 10° 12:31:49 10° 350° (N) 1,978 5.5 -9.2°
Sets 12:34:12 0° 359° (N) 2,890 6.5 -8.7°
